DELTA 1 DEB

Satellite information

Favourite Embed

Satellite Type and Status

DEBRISIN ORBIT

Key statistics

Satellite DELTA 1 DEB at a glance.

Uptime

18041

Days in orbit

Revolutions

≈ 12.5

Per day

Orbit

SSO

Sun Synchronous Orbit

Inclination

101.9

Latest

Satellite identification and parameters

Extended collection of information and parameters for DELTA 1 DEB.

Object identification

Identified? True

Debris? True

Object name: DELTA 1 DEB

International designator: 1976-077GA

Object number (NORAD): 40757

Object ID (CCSDS): 40757

Country: UNITED STATES OF AMERICA (US)

Current information (Y/N): Y

RCS size: SMALL

Orbital parameters

Period: 114.759 minutes

Inclination: 101.8887 deg

SMA: 7822.606 km

Apoapsis: 1447.094 km

Periapsis: 1441.848 km

RAAN: 316.3448 deg

Eccentricy: 0.00033529

Argument of periapsis: 126.7636 deg

Mean anomaly: 233.3745 deg

Mean motion: 12.54803124 rev/day

Mean motion (dot): 0.00000069 rev/day2

B* drag term: 0.00070968701 1/REarth

Two-line elements (TLE)

Creation date: Dec. 14, 2025, 6:24 p.m.

Reference frame: TEME

Reference center: EARTH

Epoch: Dec. 14, 2025, 3:41 a.m. UTC

TLE line 0: 0 DELTA 1 DEB

TLE line 1: 1 40757U 76077GA 25348.15371519 .00000069 00000-0 70969-3 0 9993

TLE line 2: 2 40757 101.8887 316.3448 0003353 126.7636 233.3745 12.54803124553596

Live tracking on map

Real-time ground track for satellite DELTA 1 DEB.

In-orbit conjunctions

A list of the most updated potential collisions computed for object DELTA 1 DEB.

Target Orbit TCA Probability of collision Miss distance Type
COSMOS 1235 LEO 2025-04-10 02:57:11 0.0008207048 117.0 (m) PAYLOAD

Associated space launch

Meteorological satellite using radiometric imaging

DELTA 1 DEB was lifted into orbit during the mission ‘Delta 2310 | NOAA 5’, on board a Delta 2310 space rocket.

The launch took place on July 29, 1976, 5:07 p.m. from Space Launch Complex 2W.

For more information about the launch, click the button.

Launch to space Delta 2310 | NOAA 5
Delta 2310 | NOAA 5

Agency: N/A

Status: Launch Successful

Launch date: July 29, 1976, 5:07 p.m. UTC

Rocket: Delta 2310

Launch pad: Space Launch Complex 2W

Location: Vandenberg SFB, CA, USA

...

Latest news about this satellite

There are no fresh news available about this satellite. Check back as we update our databases every day.


Newsletter sign-up

Weekly statistics, charts and insights to help you stay on top of the space industry.